COSMOS 1709

导读 | 豆包AI

COSMOS 1709是独联体(CIS)发射的一颗军用卫星,于1985年12月19日08:00发射入轨。它属于苏联/俄罗斯“宇宙”(COSMOS)系列卫星,该系列涵盖军事侦察、技术试验、空间探测等多种任务。卫星运行在高椭圆轨道,近地点约7000公里、远地点约70000公里,轨道偏心率达0.818,周期约20.88小时,延续了“宇宙”系列支持航天技术验证与国防应用的使命。

基本信息
目录编号:
16368
目录名称:
COSMOS 1709
国际标识:
1985-116A
轨道中心:
EARTH
卫星名称:
COSMOS 1709
卫星全名:
--
卫星状态:
在轨 (已飞行14716 天)
发射日期:
1985-12-19 UTC
国别 :
俄罗斯(独联体) (CIS)
星等 :
--
轨道信息
数据来源 国际轨道数据
星历时间: 2026-04-04T02:16:21+0800
7小时前
查看轨道信息
半长轴: 7360.841km
偏心率: 0.0034047
轨道倾角: 82.948°
近地点辐角 334.011°
升交点赤经 168.214°
平近点角 146.265°
近地点: 957.642km
远地点: 1007.766km
周期: 104.749分钟
每日圈数: 13.747119
详细信息
使用方式:
暂无
2D轨道图
3D轨道图
轨道高度分析图
轨道倾角分析图
轨道综合分析图
查看轨道综合分析图